Time,TemperatureF,DewpointF,PressureIn,WindDirection,WindDirectionDegrees,WindSpeedMPH,WindSpeedGustMPH,Humidity,HourlyPrecipIn,Conditions,Clouds,dailyrainin,SoftwareType,DateUTC
2013-01-04 11:50:00,33.1,24.7,30.30,NNE,19,1.0,5.0,71,0.00,CLR,SKC,0.00,WeatherDisplay:10.37,2013-01-04 17:50:00,
2013-01-04 11:55:00,32.9,24.5,30.30,WSW,242,1.0,8.0,71,0.00,CLR,SKC,0.00,WeatherDisplay:10.37,2013-01-04 17:55:00,
2013-01-04 12:00:00,32.9,24.5,30.30,SW,217,0.0,6.0,71,0.00,CLR,SKC,0.00,WeatherDisplay:10.37,2013-01-04 18:00:00,
2013-01-04 12:05:00,32.8,24.4,30.29,SSW,197,0.0,6.0,71,0.00,CLR,SKC,0.00,WeatherDisplay:10.37,2013-01-04 18:05:00,
2013-01-04 12:10:00,32.7,24.7,30.29,SSW,199,6.0,11.0,72,0.00,CLR,SKC,0.00,WeatherDisplay:10.37,2013-01-04 18:10:00,
2013-01-04 12:15:00,32.8,24.8,30.29,SSW,210,0.0,6.0,72,0.00,CLR,SKC,0.00,WeatherDisplay:10.37,2013-01-04 18:15:00,
2013-01-04 12:20:00,33.0,25.0,30.29,SW,236,0.0,10.0,72,0.00,CLR,SKC,0.00,WeatherDisplay:10.37,2013-01-04 18:20:00,
2013-01-04 12:25:00,33.0,25.0,30.29,WSW,257,2.0,6.0,72,0.00,CLR,SKC,0.00,WeatherDisplay:10.37,2013-01-04 18:25:00,
2013-01-04 12:30:00,33.1,25.1,30.29,West,267,1.0,8.0,72,0.00,CLR,SKC,0.00,WeatherDisplay:10.37,2013-01-04 18:30:00,
2013-01-04 12:35:00,33.3,24.9,30.29,WSW,256,0.0,8.0,71,0.00,CLR,SKC,0.00,WeatherDisplay:10.37,2013-01-04 18:35:00,
2013-01-04 12:40:00,33.2,25.2,30.29,WSW,243,2.0,10.0,72,0.00,CLR,SKC,0.00,WeatherDisplay:10.37,2013-01-04 18:40:00,
2013-01-04 12:45:00,33.2,25.2,30.29,WSW,249,1.0,5.0,72,0.00,CLR,SKC,0.00,WeatherDisplay:10.37,2013-01-04 18:45:00,
2013-01-04 12:50:00,33.3,25.3,30.29,West,264,1.0,8.0,72,0.00,CLR,SKC,0.00,WeatherDisplay:10.37,2013-01-04 18:50:00,
2013-01-04 12:55:00,33.3,25.3,30.30,WSW,256,1.0,6.0,72,0.00,CLR,SKC,0.00,WeatherDisplay:10.37,2013-01-04 18:55:00,
2013-01-04 13:00:00,33.5,25.5,30.29,West,266,3.0,8.0,72,0.00,CLR,SKC,0.00,WeatherDisplay:10.37,2013-01-04 19:00:00,
2013-01-04 13:05:00,33.6,25.6,30.30,WSW,257,0.0,8.0,72,0.00,CLR,SKC,0.00,WeatherDisplay:10.37,2013-01-04 19:05:00,
2013-01-04 13:10:00,33.5,25.5,30.30,SSW,202,2.0,10.0,72,0.00,CLR,SKC,0.00,WeatherDisplay:10.37,2013-01-04 19:10:00,
2013-01-04 13:15:00,33.5,25.5,30.30,SW,230,0.0,6.0,72,0.00,CLR,SKC,0.00,WeatherDisplay:10.37,2013-01-04 19:15:00,
2013-01-04 13:20:00,33.4,25.4,30.29,WSW,245,0.0,5.0,72,0.00,CLR,SKC,0.00,WeatherDisplay:10.37,2013-01-04 19:20:00,
2013-01-04 13:25:00,33.2,25.2,30.29,SW,227,1.0,5.0,72,0.00,CLR,SKC,0.00,WeatherDisplay:10.37,2013-01-04 19:25:00,
2013-01-04 13:30:00,33.0,25.3,30.29,SSW,211,0.0,8.0,73,0.00,CLR,SKC,0.00,WeatherDisplay:10.37,2013-01-04 19:30:00,
2013-01-04 13:35:00,32.9,25.2,30.29,WSW,240,1.0,6.0,73,0.00,CLR,SKC,0.00,WeatherDisplay:10.37,2013-01-04 19:35:00,
2013-01-04 13:40:00,32.9,25.2,30.29,WSW,241,1.0,3.0,73,0.00,CLR,SKC,0.00,WeatherDisplay:10.37,2013-01-04 19:40:00,
2013-01-04 13:45:00,32.6,24.9,30.28,West,266,0.0,2.0,73,0.00,CLR,SKC,0.00,WeatherDisplay:10.37,2013-01-04 19:45:00,
2013-01-04 13:50:00,32.5,25.2,30.29,WNW,295,1.0,5.0,74,0.00,CLR,SKC,0.00,WeatherDisplay:10.37,2013-01-04 19:50:00,
2013-01-04 13:55:00,32.6,25.2,30.29,West,267,0.0,8.0,74,0.00,CLR,SKC,0.00,WeatherDisplay:10.37,2013-01-04 19:55:00,
2013-01-04 14:00:00,32.6,25.2,30.28,WSW,246,1.0,6.0,74,0.00,CLR,SKC,0.00,WeatherDisplay:10.37,2013-01-04 20:00:00,
2013-01-04 14:05:00,32.5,25.2,30.28,WSW,239,2.0,10.0,74,0.00,CLR,SKC,0.00,WeatherDisplay:10.37,2013-01-04 20:05:00,
2013-01-04 14:10:00,32.5,25.2,30.28,WSW,242,0.0,5.0,74,0.00,CLR,SKC,0.00,WeatherDisplay:10.37,2013-01-04 20:10:00,
2013-01-04 14:15:00,32.7,25.3,30.28,WSW,248,0.0,3.0,74,0.00,CLR,SKC,0.00,WeatherDisplay:10.37,2013-01-04 20:15:00,
2013-01-04 14:20:00,32.9,25.5,30.27,WSW,243,1.0,10.0,74,0.00,CLR,SKC,0.00,WeatherDisplay:10.37,2013-01-04 20:20:00,
2013-01-04 14:25:00,32.9,25.5,30.27,WSW,255,2.0,5.0,74,0.00,CLR,SKC,0.00,WeatherDisplay:10.37,2013-01-04 20:25:00,
2013-01-04 14:30:00,32.8,25.4,30.28,West,270,2.0,8.0,74,0.00,CLR,SKC,0.00,WeatherDisplay:10.37,2013-01-04 20:30:00,
2013-01-04 14:35:00,32.9,25.5,30.28,West,273,2.0,14.0,74,0.00,CLR,SKC,0.00,WeatherDisplay:10.37,2013-01-04 20:35:00,
2013-01-04 14:40:00,33.1,25.7,30.28,West,263,6.0,19.0,74,0.00,CLR,SKC,0.00,WeatherDisplay:10.37,2013-01-04 20:40:00,
2013-01-04 14:45:00,33.3,25.6,30.28,WSW,238,2.0,19.0,73,0.00,CLR,SKC,0.00,WeatherDisplay:10.37,2013-01-04 20:45:00,
2013-01-04 14:50:00,33.4,25.7,30.28,SW,229,2.0,8.0,73,0.00,CLR,SKC,0.00,WeatherDisplay:10.37,2013-01-04 20:50:00,
2013-01-04 14:55:00,33.6,25.9,30.27,West,266,3.0,14.0,73,0.00,CLR,SKC,0.00,WeatherDisplay:10.37,2013-01-04 20:55:00,
2013-01-04 15:00:00,33.9,26.2,30.27,West,276,1.0,11.0,73,0.00,CLR,SKC,0.00,WeatherDisplay:10.37,2013-01-04 21:00:00,
2013-01-04 15:10:00,34.3,26.6,30.26,West,261,2.0,16.0,73,0.00,CLR,SKC,0.00,WeatherDisplay:10.37,2013-01-04 21:10:00,
2013-01-04 15:15:00,34.4,26.3,30.26,WSW,247,2.0,14.0,72,0.00,CLR,SKC,0.00,WeatherDisplay:10.37,2013-01-04 21:15:00,
2013-01-04 15:20:00,34.3,26.6,30.26,SW,232,2.0,10.0,73,0.00,CLR,SKC,0.00,WeatherDisplay:10.37,2013-01-04 21:20:00,
2013-01-04 15:25:00,34.2,26.5,30.26,SW,232,1.0,14.0,73,0.00,CLR,SKC,0.00,WeatherDisplay:10.37,2013-01-04 21:25:00,
2013-01-04 15:30:00,34.1,26.4,30.26,WSW,239,1.0,8.0,73,0.00,CLR,SKC,0.00,WeatherDisplay:10.37,2013-01-04 21:30:00,
2013-01-04 15:35:00,34.1,26.7,30.26,SW,220,0.0,10.0,74,0.00,CLR,SKC,0.00,WeatherDisplay:10.37,2013-01-04 21:35:00,
2013-01-04 15:40:00,34.1,26.7,30.26,South,183,2.0,13.0,74,0.00,CLR,SKC,0.00,WeatherDisplay:10.37,2013-01-04 21:40:00,
2013-01-04 15:45:00,34.1,26.7,30.26,South,181,0.0,6.0,74,0.00,CLR,SKC,0.00,WeatherDisplay:10.37,2013-01-04 21:45:00,
2013-01-04 15:50:00,34.1,27.0,30.26,SSW,204,1.0,5.0,75,0.00,CLR,SKC,0.00,WeatherDisplay:10.37,2013-01-04 21:50:00,
2013-01-04 15:55:00,34.0,26.9,30.26,SW,222,0.0,8.0,75,0.00,CLR,SKC,0.00,WeatherDisplay:10.37,2013-01-04 21:55:00,
2013-01-04 16:00:00,34.0,26.9,30.26,SW,224,1.0,5.0,75,0.00,CLR,SKC,0.00,WeatherDisplay:10.37,2013-01-04 22:00:00,
2013-01-04 16:05:00,34.0,27.2,30.25,SW,217,1.0,8.0,76,0.00,CLR,SKC,0.00,WeatherDisplay:10.37,2013-01-04 22:05:00,
2013-01-04 16:10:00,34.3,27.2,30.25,SW,228,2.0,13.0,75,0.00,CLR,SKC,0.00,WeatherDisplay:10.37,2013-01-04 22:10:00,
2013-01-04 16:15:00,34.4,27.3,30.25,SW,223,1.0,8.0,75,0.00,CLR,SKC,0.00,WeatherDisplay:10.37,2013-01-04 22:15:00,
2013-01-04 16:20:00,34.5,27.4,30.25,SW,216,2.0,11.0,75,0.00,CLR,SKC,0.00,WeatherDisplay:10.37,2013-01-04 22:20:00,
2013-01-04 16:25:00,34.7,27.6,30.25,SW,218,1.0,10.0,75,0.00,CLR,SKC,0.00,WeatherDisplay:10.37,2013-01-04 22:25:00,
2013-01-04 16:30:00,34.7,27.6,30.25,SSW,207,0.0,6.0,75,0.00,CLR,SKC,0.00,WeatherDisplay:10.37,2013-01-04 22:30:00,
2013-01-04 16:35:00,34.7,27.6,30.25,SSW,196,2.0,11.0,75,0.00,CLR,SKC,0.00,WeatherDisplay:10.37,2013-01-04 22:35:00,
2013-01-04 16:40:00,34.7,27.6,30.25,SSW,197,2.0,6.0,75,0.00,CLR,SKC,0.00,WeatherDisplay:10.37,2013-01-04 22:40:00,
2013-01-04 16:45:00,34.8,27.7,30.25,SSW,205,6.0,11.0,75,0.00,CLR,SKC,0.00,WeatherDisplay:10.37,2013-01-04 22:45:00,
2013-01-04 16:50:00,35.0,27.9,30.25,SW,215,3.0,11.0,75,0.00,CLR,SKC,0.00,WeatherDisplay:10.37,2013-01-04 22:50:00,
2013-01-04 16:55:00,35.2,28.1,30.25,SW,228,0.0,10.0,75,0.00,CLR,SKC,0.00,WeatherDisplay:10.37,2013-01-04 22:55:00,
2013-01-04 17:00:00,35.3,28.2,30.25,SW,229,0.0,6.0,75,0.00,CLR,SKC,0.00,WeatherDisplay:10.37,2013-01-04 23:00:00,
2013-01-04 17:05:00,35.4,28.0,30.25,SW,232,1.0,10.0,74,0.00,CLR,SKC,0.00,WeatherDisplay:10.37,2013-01-04 23:05:00,
2013-01-04 17:10:00,35.5,28.1,30.25,SW,220,1.0,10.0,74,0.00,CLR,SKC,0.00,WeatherDisplay:10.37,2013-01-04 23:10:00,
2013-01-04 17:15:00,35.5,28.4,30.25,SSW,201,1.0,6.0,75,0.00,CLR,SKC,0.00,WeatherDisplay:10.37,2013-01-04 23:15:00,
2013-01-04 17:20:00,35.4,28.3,30.25,South,190,0.0,10.0,75,0.00,CLR,SKC,0.00,WeatherDisplay:10.37,2013-01-04 23:20:00,
2013-01-04 17:25:00,35.4,28.3,30.25,SSW,204,1.0,11.0,75,0.00,CLR,SKC,0.00,WeatherDisplay:10.37,2013-01-04 23:25:00,
2013-01-04 17:30:00,35.3,28.5,30.25,SSW,213,1.0,6.0,76,0.00,CLR,SKC,0.00,WeatherDisplay:10.37,2013-01-04 23:30:00,
2013-01-04 17:35:00,35.3,28.5,30.25,SSW,206,1.0,8.0,76,0.00,CLR,SKC,0.00,WeatherDisplay:10.37,2013-01-04 23:35:00,
2013-01-04 17:40:00,35.2,28.4,30.25,SSW,197,1.0,8.0,76,0.00,CLR,SKC,0.00,WeatherDisplay:10.37,2013-01-04 23:40:00,
2013-01-04 17:45:00,35.3,28.8,30.25,SW,217,1.0,10.0,77,0.00,CLR,SKC,0.00,WeatherDisplay:10.37,2013-01-04 23:45:00,
2013-01-04 17:50:00,35.4,28.9,30.25,WSW,243,2.0,10.0,77,0.00,CLR,SKC,0.00,WeatherDisplay:10.37,2013-01-04 23:50:00,
2013-01-04 17:55:00,35.5,29.0,30.25,SW,219,0.0,10.0,77,0.00,CLR,SKC,0.00,WeatherDisplay:10.37,2013-01-04 23:55:00,
2013-01-04 18:00:00,35.6,29.4,30.25,SSW,193,1.0,6.0,78,0.00,CLR,SKC,0.00,WeatherDisplay:10.37,2013-01-05 00:00:00,
2013-01-04 18:05:00,35.6,29.4,30.25,South,179,1.0,8.0,78,0.00,CLR,SKC,0.00,WeatherDisplay:10.37,2013-01-05 00:05:00,
2013-01-04 18:10:00,35.6,29.4,30.25,SSW,205,2.0,11.0,78,0.00,CLR,SKC,0.00,WeatherDisplay:10.37,2013-01-05 00:10:00,
2013-01-04 18:15:00,35.6,29.7,30.25,SSW,212,1.0,11.0,79,0.00,CLR,SKC,0.00,WeatherDisplay:10.37,2013-01-05 00:15:00,
2013-01-04 18:20:00,35.7,29.8,30.25,SSW,208,0.0,8.0,79,0.00,CLR,SKC,0.00,WeatherDisplay:10.37,2013-01-05 00:20:00,
2013-01-04 18:25:00,35.7,29.8,30.25,SW,216,1.0,8.0,79,0.00,CLR,SKC,0.00,WeatherDisplay:10.37,2013-01-05 00:25:00,
2013-01-04 18:30:00,35.6,30.1,30.25,SSW,202,3.0,10.0,80,0.00,CLR,SKC,0.00,WeatherDisplay:10.37,2013-01-05 00:30:00,
2013-01-04 18:35:00,35.6,30.1,30.25,SSW,195,1.0,10.0,80,0.00,CLR,SKC,0.00,WeatherDisplay:10.37,2013-01-05 00:35:00,
2013-01-04 18:40:00,35.6,30.1,30.25,SSW,202,2.0,10.0,80,0.00,CLR,SKC,0.00,WeatherDisplay:10.37,2013-01-05 00:40:00,
2013-01-04 18:45:00,35.6,30.1,30.25,SSW,207,1.0,10.0,80,0.00,CLR,SKC,0.00,WeatherDisplay:10.37,2013-01-05 00:45:00,
2013-01-04 18:50:00,35.6,30.1,30.25,SSW,204,6.0,14.0,80,0.00,CLR,SKC,0.00,WeatherDisplay:10.37,2013-01-05 00:50:00,
2013-01-04 18:55:00,35.6,30.1,30.25,SSW,197,2.0,13.0,80,0.00,CLR,SKC,0.00,WeatherDisplay:10.37,2013-01-05 00:55:00,
2013-01-04 19:00:00,35.6,30.1,30.25,South,183,1.0,11.0,80,0.00,CLR,SKC,0.00,WeatherDisplay:10.37,2013-01-05 01:00:00,
2013-01-04 19:05:00,35.5,29.7,30.25,South,190,3.0,14.0,79,0.00,CLR,SKC,0.00,WeatherDisplay:10.37,2013-01-05 01:05:00,
2013-01-04 19:10:00,35.5,29.7,30.25,South,188,3.0,13.0,79,0.00,CLR,SKC,0.00,WeatherDisplay:10.37,2013-01-05 01:10:00,
2013-01-04 19:15:00,35.5,29.7,30.25,South,187,6.0,19.0,79,0.00,CLR,SKC,0.00,WeatherDisplay:10.37,2013-01-05 01:15:00,
2013-01-04 19:20:00,35.5,29.3,30.25,SSW,200,1.0,16.0,78,0.00,CLR,SKC,0.00,WeatherDisplay:10.37,2013-01-05 01:20:00,
2013-01-04 19:25:00,35.5,29.3,30.24,South,191,2.0,11.0,78,0.00,CLR,SKC,0.00,WeatherDisplay:10.37,2013-01-05 01:25:00,
2013-01-04 19:30:00,35.6,29.4,30.24,South,181,1.0,13.0,78,0.00,CLR,SKC,0.00,WeatherDisplay:10.37,2013-01-05 01:30:00,
2013-01-04 19:35:00,35.6,29.4,30.24,SW,225,1.0,10.0,78,0.00,CLR,SKC,0.00,WeatherDisplay:10.37,2013-01-05 01:35:00,
2013-01-04 19:40:00,35.8,29.6,30.24,SSW,206,2.0,13.0,78,0.00,CLR,SKC,0.00,WeatherDisplay:10.37,2013-01-05 01:40:00,
2013-01-04 19:45:00,35.9,29.4,30.24,South,185,1.0,11.0,77,0.00,CLR,SKC,0.00,WeatherDisplay:10.37,2013-01-05 01:45:00,
2013-01-04 19:50:00,36.0,29.5,30.24,SSW,192,1.0,8.0,77,0.00,CLR,SKC,0.00,WeatherDisplay:10.37,2013-01-05 01:50:00,
2013-01-04 19:55:00,36.0,29.5,30.24,SSW,208,2.0,14.0,77,0.00,CLR,SKC,0.00,WeatherDisplay:10.37,2013-01-05 01:55:00,
2013-01-04 20:00:00,36.2,29.7,30.24,SW,214,0.0,8.0,77,0.00,CLR,SKC,0.00,WeatherDisplay:10.37,2013-01-05 02:00:00,
2013-01-04 20:05:00,36.3,29.8,30.24,SSW,205,2.0,16.0,77,0.00,CLR,SKC,0.00,WeatherDisplay:10.37,2013-01-05 02:05:00,
2013-01-04 20:10:00,36.4,29.9,30.24,SW,234,6.0,10.0,77,0.00,CLR,SKC,0.00,WeatherDisplay:10.37,2013-01-05 02:10:00,
2013-01-04 20:15:00,36.6,30.1,30.24,WSW,242,1.0,6.0,77,0.00,CLR,SKC,0.00,WeatherDisplay:10.37,2013-01-05 02:15:00,
2013-01-04 20:20:00,36.7,30.2,30.24,SW,218,2.0,8.0,77,0.00,CLR,SKC,0.00,WeatherDisplay:10.37,2013-01-05 02:20:00,
2013-01-04 20:25:00,36.7,30.2,30.24,SW,226,0.0,11.0,77,0.00,CLR,SKC,0.00,WeatherDisplay:10.37,2013-01-05 02:25:00,
2013-01-04 20:30:00,36.8,30.6,30.24,SW,227,3.0,13.0,78,0.00,CLR,SKC,0.00,WeatherDisplay:10.37,2013-01-05 02:30:00,
2013-01-04 20:35:00,36.9,30.7,30.24,SW,215,3.0,18.0,78,0.00,CLR,SKC,0.00,WeatherDisplay:10.37,2013-01-05 02:35:00,
2013-01-04 20:40:00,37.0,30.8,30.24,SSW,213,2.0,10.0,78,0.00,CLR,SKC,0.00,WeatherDisplay:10.37,2013-01-05 02:40:00,
2013-01-04 20:45:00,37.1,30.9,30.24,SW,214,2.0,13.0,78,0.00,CLR,SKC,0.00,WeatherDisplay:10.37,2013-01-05 02:45:00,
2013-01-04 20:50:00,37.0,30.8,30.24,SW,219,1.0,11.0,78,0.00,CLR,SKC,0.00,WeatherDisplay:10.37,2013-01-05 02:50:00,
2013-01-04 20:55:00,37.0,30.8,30.24,WSW,251,3.0,16.0,78,0.00,CLR,SKC,0.00,WeatherDisplay:10.37,2013-01-05 02:55:00,
2013-01-04 21:00:00,37.0,30.8,30.24,West,259,3.0,18.0,78,0.00,CLR,SKC,0.00,WeatherDisplay:10.37,2013-01-05 03:00:00,
2013-01-04 21:05:00,37.0,31.1,30.24,WSW,241,1.0,10.0,79,0.00,CLR,SKC,0.00,WeatherDisplay:10.37,2013-01-05 03:05:00,
2013-01-04 21:10:00,37.1,31.2,30.24,SW,230,2.0,11.0,79,0.00,CLR,SKC,0.00,WeatherDisplay:10.37,2013-01-05 03:10:00,
2013-01-04 21:15:00,37.3,31.1,30.24,SW,224,3.0,13.0,78,0.00,CLR,SKC,0.00,WeatherDisplay:10.37,2013-01-05 03:15:00,
2013-01-04 21:20:00,37.5,31.6,30.24,SSW,197,2.0,10.0,79,0.00,CLR,SKC,0.00,WeatherDisplay:10.37,2013-01-05 03:20:00,
2013-01-04 21:25:00,37.7,31.5,30.24,SW,230,2.0,11.0,78,0.00,CLR,SKC,0.00,WeatherDisplay:10.37,2013-01-05 03:25:00,
2013-01-04 21:30:00,38.0,31.8,30.24,WSW,242,1.0,10.0,78,0.00,CLR,SKC,0.00,WeatherDisplay:10.37,2013-01-05 03:30:00,
2013-01-04 21:35:00,38.2,32.0,30.24,SW,230,2.0,10.0,78,0.00,CLR,SKC,0.00,WeatherDisplay:10.37,2013-01-05 03:35:00,
2013-01-04 21:40:00,38.2,32.0,30.24,WSW,245,1.0,8.0,78,0.00,CLR,SKC,0.00,WeatherDisplay:10.37,2013-01-05 03:40:00,
2013-01-04 21:45:00,38.3,32.1,30.23,WSW,244,2.0,14.0,78,0.00,CLR,SKC,0.00,WeatherDisplay:10.37,2013-01-05 03:45:00,
2013-01-04 21:50:00,38.5,32.3,30.23,WSW,244,2.0,11.0,78,0.00,CLR,SKC,0.00,WeatherDisplay:10.37,2013-01-05 03:50:00,
2013-01-04 21:55:00,38.6,32.0,30.23,WSW,243,3.0,13.0,77,0.00,CLR,SKC,0.00,WeatherDisplay:10.37,2013-01-05 03:55:00,
2013-01-04 22:00:00,38.6,32.4,30.23,WSW,258,3.0,6.0,78,0.00,CLR,SKC,0.00,WeatherDisplay:10.37,2013-01-05 04:00:00,
2013-01-04 22:05:00,38.6,32.4,30.23,West,270,1.0,13.0,78,0.00,CLR,SKC,0.00,WeatherDisplay:10.37,2013-01-05 04:05:00,
2013-01-04 22:10:00,38.7,32.4,30.23,West,267,1.0,10.0,78,0.00,CLR,SKC,0.00,WeatherDisplay:10.37,2013-01-05 04:10:00,
2013-01-04 22:15:00,38.7,32.4,30.23,WSW,240,0.0,13.0,78,0.00,CLR,SKC,0.00,WeatherDisplay:10.37,2013-01-05 04:15:00,
2013-01-04 22:20:00,38.9,32.6,30.22,WSW,239,1.0,11.0,78,0.00,CLR,SKC,0.00,WeatherDisplay:10.37,2013-01-05 04:20:00,
2013-01-04 22:25:00,39.2,32.9,30.22,West,263,1.0,14.0,78,0.00,CLR,SKC,0.00,WeatherDisplay:10.37,2013-01-05 04:25:00,
2013-01-04 22:30:00,39.4,32.8,30.22,WSW,254,3.0,10.0,77,0.00,CLR,SKC,0.00,WeatherDisplay:10.37,2013-01-05 04:30:00,
2013-01-04 22:35:00,39.6,33.0,30.21,WSW,243,6.0,11.0,77,0.00,CLR,SKC,0.00,WeatherDisplay:10.37,2013-01-05 04:35:00,
2013-01-04 22:40:00,39.7,33.1,30.21,WSW,242,3.0,13.0,77,0.00,CLR,SKC,0.00,WeatherDisplay:10.37,2013-01-05 04:40:00,
2013-01-04 22:45:00,39.9,33.3,30.21,SW,233,3.0,18.0,77,0.00,CLR,SKC,0.00,WeatherDisplay:10.37,2013-01-05 04:45:00,
2013-01-04 22:50:00,40.0,33.4,30.21,WSW,237,3.0,16.0,77,0.00,CLR,SKC,0.00,WeatherDisplay:10.37,2013-01-05 04:50:00,
2013-01-04 22:55:00,40.0,33.1,30.20,WSW,249,2.0,11.0,76,0.00,CLR,SKC,0.00,WeatherDisplay:10.37,2013-01-05 04:55:00,
2013-01-04 23:00:00,40.2,33.3,30.20,WSW,241,2.0,10.0,76,0.00,CLR,SKC,0.00,WeatherDisplay:10.37,2013-01-05 05:00:00,
2013-01-04 23:05:00,40.4,33.5,30.19,WSW,240,7.0,19.0,76,0.00,CLR,SKC,0.00,WeatherDisplay:10.37,2013-01-05 05:05:00,
2013-01-04 23:10:00,40.5,33.5,30.19,WSW,241,2.0,16.0,76,0.00,CLR,SKC,0.00,WeatherDisplay:10.37,2013-01-05 05:10:00,
2013-01-04 23:15:00,40.6,33.3,30.19,WSW,243,6.0,18.0,75,0.00,CLR,SKC,0.00,WeatherDisplay:10.37,2013-01-05 05:15:00,
2013-01-04 23:20:00,40.9,33.6,30.18,WSW,246,6.0,11.0,75,0.00,CLR,SKC,0.00,WeatherDisplay:10.37,2013-01-05 05:20:00,
2013-01-04 23:25:00,41.0,33.7,30.18,WSW,248,2.0,10.0,75,0.00,CLR,SKC,0.00,WeatherDisplay:10.37,2013-01-05 05:25:00,
2013-01-04 23:30:00,41.0,33.4,30.18,WSW,250,3.0,19.0,74,0.00,CLR,SKC,0.00,WeatherDisplay:10.37,2013-01-05 05:30:00,
2013-01-04 23:35:00,41.0,33.4,30.17,WSW,254,3.0,14.0,74,0.00,CLR,SKC,0.00,WeatherDisplay:10.37,2013-01-05 05:35:00,
2013-01-04 23:40:00,41.1,33.5,30.17,WSW,257,3.0,13.0,74,0.00,CLR,SKC,0.00,WeatherDisplay:10.37,2013-01-05 05:40:00,
2013-01-04 23:45:00,41.5,33.8,30.16,WSW,248,3.0,10.0,74,0.00,CLR,SKC,0.00,WeatherDisplay:10.37,2013-01-05 05:45:00,
2013-01-04 23:50:00,41.8,33.8,30.16,WSW,248,3.0,14.0,73,0.00,CLR,SKC,0.00,WeatherDisplay:10.37,2013-01-05 05:50:00,
2013-01-04 23:55:00,41.8,33.8,30.15,WSW,242,6.0,13.0,73,0.00,CLR,SKC,0.00,WeatherDisplay:10.37,2013-01-05 05:55:00,